Regional Weather Roundup
Issued by NWS

Home | Current Version | Previous Version | Graphics & Text | Print | Product List | Glossary Off
Versions: 1 2 3 4 5 6 7 8 9 10 11 12 13 14 15 16 17 18 19 20 21 22 23 24 25 26 27 28 29 30 31 32 33 34 35 36 37 38 39 40 41 42 43 44 45 46 47 48 49 50

887
ASUS43 KMPX 211301
RWRMN
WEATHER ROUNDUP FOR MINNESOTA
NATIONAL WEATHER SERVICE TWIN CITIES/CHANHASSEN MN
700 AM CST TUE NOV 21 2017


NOTE: "FAIR" INDICATES FEW OR NO CLOUDS BELOW 12,000 FEET WITH NO
SIGNIFICANT WEATHER AND/OR OBSTRUCTIONS TO VISIBILITY. N/A MEANS
CURRENT SKY AND/OR WEATHER CONDITIONS ARE NOT AVAILABLE.

MNZ060>063-068>070-211400-
   Twin Cities Metro

CITY           SKY/WX    TMP DP  RH WIND       PRES   REMARKS
TWIN CITIES    FLURRIES  27  19  72 NW20G30   29.83  WCI  13
ST PAUL        CLOUDY    28  15  58 NW30G43   29.84  WCI  12
CRYSTAL        CLOUDY    27  11  51 NW17G39   29.83  WCI  14
BLAINE         CLOUDY    28  16  59 NW28G37   29.81R WCI  13
LAKEVILLE      CLOUDY    25  18  74 NW18G31   29.83R WCI  11
EDEN PRAIRIE   FLURRIES  27  17  66 NW22G30   29.83  WCI  13
SOUTH ST PAUL  CLOUDY    28  17  61 NW23G29   29.82R WCI  14
LAKE ELMO      CLOUDY    28  18  64 NW18G32   29.82R WCI  16
$$
MNZ001>005-007-008-013>017-022>024-027-028-211400-
   Northwest Minnesota

CITY           SKY/WX    TMP DP  RH WIND       PRES   REMARKS
BEMIDJI        FLURRIES  14   9  79 NW18G26   29.90R WCI  -3
HALLOCK        CLOUDY    14   9  79 NW22      30.08R WCI  -4
ROSEAU         PTCLDY    14   9  79 NW21      29.99R WCI  -4
WARROAD        CLEAR     12   7  79 NW15G21   29.96R WCI  -4
CROOKSTON      FLURRIES  12   9  85 N30G37    30.08R WCI  -9
FOSSTON        FLURRIES  10   7  85 NW16      30.00R WCI  -7
DETROIT LAKES  CLOUDY    14  10  85 NW25G37   30.00R WCI  -5
MOORHEAD       MIX PCPN  16   9  73 N24G31    30.08R WCI  -3
PARK RAPIDS    FLURRIES  15   8  73 NW21G31   29.90  WCI  -2
MAHNOMEN       FLURRIES  13   8  81 NW24G32   30.01R WCI  -7
$$
MNZ006-009>011-018-025>026-211400-
   North Central Minnesota

CITY           SKY/WX    TMP DP  RH WIND       PRES   REMARKS
BAUDETTE       CLOUDY    14   8  77 NW21G31   29.89R WCI  -4
FLAG ISLAND    PTCLDY    12   9  85 NW22      29.93R WCI  -7
INTL FALLS     FLURRIES  16   8  71 NW21G26   29.82R WCI  -1
WASKISH        CLOUDY    16  10  79 NW16G24   29.90R WCI   0
BIG FORK       LGT SNOW  18  10  73 NW8G22    29.81R WCI   7
LONGVILLE      LGT SNOW  18  10  73 NW13G21   29.85R WCI   4
GRAND RAPIDS   FLURRIES  18  12  77 NW20G31   29.81R WCI   2
CRANE LAKE     LGT SNOW  16  10  79 N10G21    29.77R WCI   3
ORR            LGT SNOW  16  10  79 NW13G24   29.73R WCI   2
COOK           LGT SNOW  18  12  79 NW9G21    29.74R WCI   6
WALKER         FLURRIES  15   8  75 NW20G25   29.88R WCI  -2
$$
MNZ012-019>021-037-211400-
   Northeast Minnesota

CITY           SKY/WX    TMP DP  RH WIND       PRES   REMARKS
DULUTH         FLURRIES  19  11  70 NW20G28   29.69R WCI   3
ELY            LGT SNOW  16  10  79 NW15G26   29.67R WCI   1
HIBBING        FLURRIES  17  10  74 NW26G41   29.73  WCI  -2
EVELETH        LGT SNOW  18  10  73 NW18G26   29.72R WCI   2
DULUTH HARBOR  FLURRIES  25  14  63 NW22G32   29.76R WCI  10
TWO HARBORS    CLOUDY    25  16  68 W12G26    29.66R WCI  14
GRAND MARAIS     N/A     23  11  60 NW15G24   29.60R WCI  10
G MARAIS ARPRT LGT SNOW  14   7  73 NW20G33   29.50R WCI  -3
$$
MNZ029>031-032-039>041-046>048-054>057-064-211400-
   West Central Minnesota

CITY           SKY/WX    TMP DP  RH WIND       PRES   REMARKS
FERGUS FALLS   LGT SNOW  16  10  79 N21G28    30.05R WCI  -2
WHEATON        CLOUDY    19   9  63 NW21G29   30.08R WCI   3
MORRIS         CLOUDY    19  10  68 NW32G39   29.99R WCI   0
ALEXANDRIA     CLOUDY    18  11  74 NW26G36   29.94R WCI  -1
ELBOW LAKE     FLURRIES  17  11  77 W25G36    30.00R WCI  -1
WADENA         FLURRIES  14   7  73 NW16G26   29.93R WCI  -2
GLENWOOD       FLURRIES  18  12  79 NW24G36   29.94R WCI   0
APPLETON       CLOUDY    21  12  68 NW25G32   30.02R WCI   4
BENSON           N/A     19   9  63 N31G41    30.00R WCI   0
ORTONVILLE     CLOUDY    19   9  63 MISG      30.05R
MADISON        CLOUDY    23  12  63 NW25G37   30.04R WCI   7
WILLMAR        MOCLDY    21  12  68 NW28G36   29.96R WCI   3
$$
MNZ033>034-036-042>043-049>051-058-059-211400-
   Central Minnesota

CITY           SKY/WX    TMP DP  RH WIND       PRES   REMARKS
ST CLOUD       CLOUDY    20   9  62 NW24G35   29.87R WCI   3
SAUK CENTRE    FLURRIES  18  10  71 NW20G33   29.92R WCI   1
PAYNESVILLE    FLURRIES  21  15  76 NW18G31   29.92R WCI   6
AITKIN         LGT RAIN  18   9  68 NW14G26   29.81R WCI   4
PINE RIVER     FLURRIES  16   9  73 NW13G18   29.90R WCI   2
BRAINERD       FLURRIES  19   8  62 NW18G30   29.87  WCI   4
STAPLES        FLURRIES  16   7  67 NW18G29   29.90R WCI  -1
LONG PRAIRIE   MOCLDY    18   9  68 W29G35    29.88R WCI  -2
LITTLE FALLS   CLOUDY    19   3  49 NW13G22   29.90R WCI   7
LITCHFIELD     CLOUDY    23  12  63 NW20G30   29.90R WCI   8
BUFFALO        CLOUDY    25  14  64 NW18G25   29.88R WCI  11
MAPLE LAKE     CLOUDY    25  16  68 NW14G28   29.88R WCI  13
HUTCHINSON     CLOUDY    24  15  66 NW21G30   29.91R WCI  10
$$
MNZ037-044-045-052-053-211400-
   East Central Minnesota

CITY           SKY/WX    TMP DP  RH WIND       PRES   REMARKS
PRINCETON      MOCLDY    21  10  63 W20G31    29.85R WCI   6
MORA           CLOUDY    21  10  63 NW21G38   29.83R WCI   6
CAMBRIDGE      CLOUDY    25  12  58 NW18G28   29.83R WCI  11
RUSH CITY      CLOUDY    24  13  63 NW16G29   29.81R WCI  11
MOOSE LAKE     FLURRIES  21  10  63 NW13G18   29.77R WCI   9
HINCKLEY       CLOUDY    23  12  63 NW17G25   29.80R WCI   9
CLOQUET        LGT SNOW  19  10  68 W16G28    29.73R WCI   5
MCGREGOR       CLOUDY    21  12  68 NW23G31   29.79R WCI   5
$$
MNZ071>073-080-081-089-090-097-098-211400-
   Southwest Minnesota

CITY           SKY/WX    TMP DP  RH WIND       PRES   REMARKS
MONTEVIDEO     FLURRIES  21  12  68 N22G35    30.01R WCI   5
GRANITE FALLS  CLOUDY    23  14  67 NW24G31   30.02R WCI   7
CANBY          CLOUDY    21  11  65 W26G38    30.05R WCI   4
MARSHALL       CLOUDY    20  10  65 NW32G40   30.00R WCI   1
REDWOOD FALLS  CLOUDY    23  10  57 NW16G35   29.97  WCI  10
OLIVIA         FLURRIES  23  14  68 NW22G35   29.95R WCI   8
PIPESTONE      CLOUDY    18   9  68 N24G31    30.01R WCI   0
WINDOM           N/A     19   5  53 NW23G35   29.96R WCI   2
WORTHINGTON    CLOUDY    18   9  68 NW29G36   30.00R WCI  -1
JACKSON        PTCLDY    21  10  63 NW30G40   29.96R WCI   3
SLAYTON        CLOUDY    18  10  69 NW23G33   29.98R WCI   0
$$
MNZ065>067-074>077-082>085-091>093-211400-
   South Central Minnesota

CITY           SKY/WX    TMP DP  RH WIND       PRES   REMARKS
MANKATO        FLURRIES  23  14  68 NW24G32   29.90R WCI   7
NEW ULM        CLOUDY    21  10  63 NW26G36   29.94R WCI   4
ST JAMES       PTCLDY    21  10  63 W25G31    29.97R WCI   4
FAIRMONT       PTCLDY    22  12  65 NW28G39   29.95R WCI   4
GLENCOE        CLOUDY    26  16  65 W25G32    29.89R WCI  11
FARIBAULT      FLURRIES  25  18  74 W17G29    29.86R WCI  11
OWATONNA       CLOUDY    25  16  68 W23G30    29.85R WCI  10
WASECA         CLOUDY    23  14  68 W22G37    29.89R WCI   8
ALBERT LEA     MOCLDY    25  12  58 NW20G29   29.86R WCI  11
$$
MNZ078>079-086>088-094>096-211400-
   Southeast Minnesota

CITY           SKY/WX    TMP DP  RH WIND       PRES   REMARKS
ROCHESTER      CLOUDY    25  16  68 NW24G35   29.78R WCI   9
RED WING       CLOUDY    28  10  47 NW18G29   29.80R WCI  16
STANTON        CLOUDY    28  16  60 NW22G31   29.82R WCI  15
DODGE CENTER   PTCLDY    25  14  63 W23G32    29.81R WCI  10
WINONA         CLOUDY    32  21  64 NW18G26   29.77R WCI  20
AUSTIN         PTCLDY    25  16  68 NW28G37   29.84R WCI   8
PRESTON        CLEAR     26  15  64 NW20G30   29.78R WCI  12
$$
ABBREVIATIONS USED IN REMARKS
   TC - TEMPERATURES IN CELSIUS
  WCI - WIND CHILL INDEX
   HX - HEAT INDEX
  VSB - VISIBILITY
$$




USA.gov is the U.S. government's official web portal to all federal, state and local government web resources and services.